TimeMDT,TemperatureF,Dew PointF,Humidity,Sea Level PressureIn,VisibilityMPH,Wind Direction,Wind SpeedMPH,Gust SpeedMPH,PrecipitationIn,Events,Conditions,WindDirDegrees,DateUTC
12:52 AM,27.0,16.0,63,30.18,10.0,NNW,12.7,-,N/A,,Overcast,340,2013-03-10 07:52:00
1:52 AM,26.1,14.0,60,30.19,10.0,North,12.7,20.7,N/A,,Overcast,350,2013-03-10 08:52:00
3:52 AM,24.1,12.0,60,30.19,10.0,North,18.4,26.5,N/A,,Overcast,10,2013-03-10 09:52:00
4:52 AM,21.0,12.0,68,30.22,10.0,North,12.7,-,N/A,,Overcast,10,2013-03-10 10:52:00
6:52 AM,19.0,10.0,68,30.27,10.0,North,12.7,-,N/A,,Clear,350,2013-03-10 12:52:00
7:52 AM,19.9,10.0,65,30.27,10.0,North,11.5,-,N/A,,Clear,350,2013-03-10 13:52:00
8:52 AM,23.0,10.0,58,30.27,10.0,North,17.3,29.9,N/A,,Clear,360,2013-03-10 14:52:00
9:52 AM,25.0,7.0,46,30.27,10.0,NNW,18.4,26.5,N/A,,Clear,340,2013-03-10 15:52:00
10:52 AM,28.9,7.0,40,30.26,10.0,North,17.3,27.6,N/A,,Clear,360,2013-03-10 16:52:00
11:52 AM,30.9,7.0,37,30.25,10.0,North,15.0,27.6,N/A,,Clear,350,2013-03-10 17:52:00
12:52 PM,34.0,7.0,32,30.22,10.0,North,16.1,23.0,N/A,,Clear,10,2013-03-10 18:52:00
1:52 PM,36.0,5.0,27,30.18,10.0,North,16.1,21.9,N/A,,Clear,10,2013-03-10 19:52:00
2:52 PM,37.9,3.9,24,30.17,10.0,North,15.0,-,N/A,,Clear,10,2013-03-10 20:52:00
3:52 PM,39.0,1.9,21,30.15,10.0,North,6.9,-,N/A,,Clear,10,2013-03-10 21:52:00
4:52 PM,37.9,1.9,22,30.14,10.0,Variable,3.5,-,N/A,,Clear,0,2013-03-10 22:52:00
5:52 PM,37.0,1.9,23,30.14,10.0,NNW,6.9,-,N/A,,Clear,330,2013-03-10 23:52:00
6:52 PM,32.0,5.0,32,30.16,10.0,NNE,4.6,-,N/A,,Clear,20,2013-03-11 00:52:00
7:52 PM,24.1,8.1,51,30.17,10.0,ENE,4.6,-,N/A,,Clear,60,2013-03-11 01:52:00
8:52 PM,23.0,10.0,58,30.14,10.0,Calm,Calm,-,N/A,,Clear,0,2013-03-11 02:52:00
10:52 PM,19.0,12.0,74,30.11,10.0,East,4.6,-,N/A,,Clear,80,2013-03-11 04:52:00
11:52 PM,18.0,12.0,78,30.09,10.0,Calm,Calm,-,N/A,,Clear,0,2013-03-11 05:52:00
12:52 AM,18.0,12.9,81,30.05,10.0,Calm,Calm,-,N/A,,Clear,0,2013-03-11 06:52:00